This demonstration page uses our WeatherBlox Daily Observations layout. Learn more.

36.17497, -115.13722

Hourly Observations for June 7, 2015

Temp ( °F °C ) Dew Point ( °F °C ) Humidity (%) Winds ( mph kmh ) Pressure ( in mb ) Visibility ( mi km ) Precip ( " mm )
12:53 am 00:53 Clear 78 25.6 32 0 19 19 Calm 29.84 1011 10 16.0934 0 0
1:53 am 01:53 Clear 75 23.9 34 1.1 22 22 NW 3 6 29.84 1011 10 16.0934 0 0
2:53 am 02:53 Clear 74 23.3 32 0 21 21 N 6 9 29.84 1011 10 16.0934 0 0
3:53 am 03:53 Clear 74 23.3 31 -0.6 20 20 NNW 8 13 29.85 1011 10 16.0934 0 0
4:53 am 04:53 Clear 71 21.7 35 1.7 27 27 NW 7 11 29.85 1011 10 16.0934 0 0
5:53 am 05:53 Sunny 73 22.8 34 1.1 24 24 NNW 9 15 29.88 1012 10 16.0934 0 0
6:53 am 06:53 Sunny 76 24.4 36 2.2 23 23 N 7 11 29.89 1012 10 16.0934 0 0
7:53 am 07:53 Sunny 78 25.6 38 3.3 24 24 N 12 19 29.91 1013 10 16.0934 0 0
8:53 am 08:53 Sunny 81 27.2 37 2.8 21 21 N 7 11 29.92 1013 10 16.0934 0 0
9:53 am 09:53 Sunny 82 27.8 35 1.7 18 18 SE 3 6 29.92 1013 10 16.0934 0 0
10:53 am 10:53 Sunny 85 29.4 32 0 15 15 undefined N/A 29.92 1013 10 16.0934 0 0
11:53 am 11:53 Sunny 87 30.6 31 -0.6 13 13 SE 8 13 29.91 1013 10 16.0934 0 0
12:53 pm 12:53 Sunny 88 31.1 31 -0.6 13 13 VRB 6 9 29.9 1013 10 16.0934 0 0
1:53 pm 13:53 Sunny 90 32.2 29 -1.7 11 11 E 7 11 29.89 1012 10 16.0934 0 0
2:53 pm 14:53 Sunny 91 32.8 29 -1.7 11 11 undefined N/A 29.87 1012 10 16.0934 0 0
3:53 pm 15:53 Sunny 92 33.3 29 -1.7 10 10 N 7 11 29.86 1011 10 16.0934 0 0
4:53 pm 16:53 Sunny 92 33.3 29 -1.7 10 10 VRB 3 6 29.85 1011 10 16.0934 0 0
5:53 pm 17:53 Sunny 92 33.3 29 -1.7 10 10 VRB 6 9 29.85 1011 10 16.0934 0 0
6:53 pm 18:53 Sunny 92 33.3 29 -1.7 10 10 ENE 5 7 29.85 1011 10 16.0934 0 0
7:53 pm 19:53 Sunny 90 32.2 28 -2.2 11 11 ESE 3 6 29.86 1011 10 16.0934 0 0
8:53 pm 20:53 Clear 89 31.7 29 -1.7 11 11 NE 6 9 29.87 1011 10 16.0934 0 0
9:53 pm 21:53 Clear 87 30.6 31 -0.6 13 13 Calm 29.88 1012 10 16.0934 0 0
10:53 pm 22:53 Clear 83 28.3 32 0 16 16 NW 6 9 29.89 1012 10 16.0934 0 0
11:53 pm 23:53 Clear 83 28.3 33 0.6 17 17 WNW 5 7 29.89 1012 10 16.0934 0 0

Powered by AerisWeather